AXM5221 WMKK-RKSI

Flight info

Callsign AXM5221
Flight time N/A
Altitude 35000
Route KIMAT3F KIMAT Y344 VPK L629 DOLOX M771 DUDIS/K0869F350 M771 DAGAG M765 ALDAS L625 ANOKI/N0465F360 L625 ABVAR/N0461F370 M646 POTIB Q11 SALMI Y743 BOLUT B576 CJU Y722 MAKSA MAKSA2M
Aircraft A320/M-SDE3FGHIRWY/LB1

Departure

Time 2026-04-30 12:44
Airport Kuala Lumpur International Airport (WMKK)

Arrival

Time N/A
Airport Incheon International Airport (RKSI)
Time Latitude Longitude Altitude Speed Heading
2026-04-30 12:23 2.73812 101.68542 42 ft 0 kts 146°
2026-04-30 12:27 2.73817 101.68538 42 ft 2 kts 150°
2026-04-30 12:28 2.73835 101.68531 42 ft 3 kts 180°
2026-04-30 12:28 2.73854 101.68534 42 ft 3 kts 206°
2026-04-30 12:28 2.73871 101.68545 42 ft 3 kts 226°
2026-04-30 12:28 2.73878 101.68553 42 ft 0 kts 236°
2026-04-30 12:33 2.73869 101.68536 42 ft 5 kts 249°
2026-04-30 12:33 2.73860 101.68480 42 ft 11 kts 260°
2026-04-30 12:33 2.73830 101.68414 40 ft 11 kts 238°
2026-04-30 12:34 2.73789 101.68352 40 ft 11 kts 236°
2026-04-30 12:34 2.73746 101.68290 39 ft 11 kts 235°
2026-04-30 12:34 2.73702 101.68225 40 ft 13 kts 236°
2026-04-30 12:34 2.73656 101.68196 40 ft 2 kts 158°
2026-04-30 12:35 2.73635 101.68211 40 ft 6 kts 143°
2026-04-30 12:35 2.73581 101.68248 40 ft 12 kts 147°
2026-04-30 12:35 2.73498 101.68304 40 ft 15 kts 146°
2026-04-30 12:35 2.73425 101.68354 38 ft 10 kts 146°
2026-04-30 12:36 2.73379 101.68384 38 ft 7 kts 147°
2026-04-30 12:36 2.73322 101.68420 38 ft 12 kts 147°
2026-04-30 12:36 2.73241 101.68477 38 ft 16 kts 145°
2026-04-30 12:36 2.73156 101.68534 40 ft 14 kts 146°
2026-04-30 12:37 2.73077 101.68587 38 ft 14 kts 146°
2026-04-30 12:37 2.72989 101.68647 40 ft 15 kts 146°
2026-04-30 12:37 2.72902 101.68705 40 ft 15 kts 146°
2026-04-30 12:37 2.72820 101.68760 40 ft 14 kts 146°
2026-04-30 12:38 2.72744 101.68812 40 ft 13 kts 146°
2026-04-30 12:38 2.72668 101.68863 40 ft 16 kts 146°
2026-04-30 12:38 2.72585 101.68919 40 ft 12 kts 146°
2026-04-30 12:38 2.72528 101.68958 38 ft 9 kts 146°
2026-04-30 12:39 2.72469 101.68997 38 ft 13 kts 146°
2026-04-30 12:39 2.72376 101.69061 40 ft 18 kts 146°
2026-04-30 12:39 2.72285 101.69121 39 ft 14 kts 146°
2026-04-30 12:39 2.72205 101.69175 37 ft 16 kts 146°
2026-04-30 12:40 2.72101 101.69244 38 ft 17 kts 146°
2026-04-30 12:40 2.72013 101.69303 38 ft 12 kts 146°
2026-04-30 12:40 2.71953 101.69343 38 ft 11 kts 146°
2026-04-30 12:40 2.71872 101.69394 40 ft 15 kts 158°
2026-04-30 12:41 2.71787 101.69338 39 ft 13 kts 236°
2026-04-30 12:41 2.71752 101.69277 39 ft 1 kts 255°
2026-04-30 12:41 2.71752 101.69276 39 ft 0 kts 255°
2026-04-30 12:42 2.71751 101.69274 39 ft 2 kts 256°
2026-04-30 12:42 2.71763 101.69225 39 ft 13 kts 295°
2026-04-30 12:43 2.71799 101.69129 39 ft 12 kts 281°
2026-04-30 12:43 2.71830 101.69088 39 ft 0 kts 324°
2026-04-30 12:43 2.71948 101.69007 39 ft 55 kts 326°
2026-04-30 12:44 2.72450 101.68670 37 ft 117 kts 326°
2026-04-30 12:44 2.73268 101.68119 54 ft 163 kts 326°
2026-04-30 12:44 2.74225 101.67488 586 ft 164 kts 327°
2026-04-30 12:44 2.75179 101.66857 1227 ft 165 kts 326°
2026-04-30 12:45 2.76039 101.66053 1569 ft 179 kts 295°
2026-04-30 12:45 2.76240 101.64766 1726 ft 200 kts 271°
2026-04-30 12:45 2.76297 101.63329 1974 ft 213 kts 282°
2026-04-30 12:45 2.76969 101.61957 2103 ft 233 kts 316°
2026-04-30 12:46 2.78421 101.61162 2332 ft 251 kts 353°
2026-04-30 12:46 2.80147 101.61432 2766 ft 258 kts 31°
2026-04-30 12:46 2.81409 101.62692 3375 ft 262 kts 59°
2026-04-30 12:46 2.82286 101.64313 4116 ft 266 kts 64°
2026-04-30 12:47 2.83073 101.65989 4873 ft 268 kts 65°
2026-04-30 12:47 2.83845 101.67700 5603 ft 270 kts 65°
2026-04-30 12:47 2.84624 101.69404 6283 ft 272 kts 64°
2026-04-30 12:47 2.85421 101.71114 6951 ft 275 kts 64°
2026-04-30 12:48 2.86242 101.72855 7599 ft 278 kts 64°
2026-04-30 12:48 2.87077 101.74618 8239 ft 284 kts 64°
2026-04-30 12:48 2.87928 101.76405 8923 ft 285 kts 63°
2026-04-30 12:48 2.88792 101.78199 9547 ft 288 kts 63°
2026-04-30 12:49 2.89669 101.80007 10152 ft 290 kts 64°
2026-04-30 12:49 2.90579 101.81880 10345 ft 310 kts 64°
2026-04-30 12:49 2.91549 101.83882 10476 ft 329 kts 64°
2026-04-30 12:49 2.92575 101.86003 10606 ft 347 kts 64°
2026-04-30 12:50 2.93649 101.88229 10739 ft 364 kts 64°
2026-04-30 12:50 2.94768 101.90552 10976 ft 375 kts 64°
2026-04-30 12:50 2.95907 101.92916 11451 ft 379 kts 64°
2026-04-30 12:50 2.97056 101.95296 11963 ft 382 kts 64°
2026-04-30 12:51 2.98216 101.97697 12499 ft 384 kts 64°
2026-04-30 12:51 2.99379 102.00106 13005 ft 386 kts 64°
2026-04-30 12:51 3.00547 102.02532 13508 ft 389 kts 64°
2026-04-30 12:51 3.01728 102.04982 13978 ft 392 kts 64°
2026-04-30 12:52 3.02917 102.07447 14431 ft 395 kts 64°
2026-04-30 12:52 3.04116 102.09932 14892 ft 398 kts 64°
2026-04-30 12:52 3.05325 102.12439 15356 ft 401 kts 64°
2026-04-30 12:52 3.06538 102.14959 15820 ft 404 kts 65°
2026-04-30 12:53 3.07758 102.17497 16268 ft 407 kts 65°
2026-04-30 12:53 3.08990 102.20058 16698 ft 409 kts 65°
2026-04-30 12:53 3.10229 102.22631 17092 ft 412 kts 65°
2026-04-30 12:53 3.11480 102.25225 17474 ft 415 kts 64°
2026-04-30 12:54 3.12724 102.27796 17849 ft 418 kts 64°
2026-04-30 12:54 3.14011 102.30456 18221 ft 421 kts 64°
2026-04-30 12:54 3.15285 102.33098 18596 ft 423 kts 65°
2026-04-30 12:54 3.16346 102.35846 18943 ft 424 kts 74°
2026-04-30 12:55 3.17002 102.38729 19291 ft 426 kts 78°
2026-04-30 12:55 3.17602 102.41598 19619 ft 428 kts 78°
2026-04-30 12:55 3.18217 102.44518 19944 ft 430 kts 78°
2026-04-30 12:55 3.18835 102.47448 20252 ft 432 kts 78°
2026-04-30 12:56 3.19460 102.50396 20545 ft 434 kts 78°
2026-04-30 12:56 3.20088 102.53349 20838 ft 435 kts 78°
2026-04-30 12:56 3.20718 102.56320 21130 ft 437 kts 78°
2026-04-30 12:56 3.21348 102.59299 21398 ft 439 kts 78°
2026-04-30 12:57 3.21978 102.62290 21660 ft 440 kts 78°
2026-04-30 12:57 3.22612 102.65295 21914 ft 442 kts 78°
2026-04-30 12:57 3.23246 102.68309 22170 ft 444 kts 78°
2026-04-30 12:57 3.23881 102.71336 22419 ft 445 kts 78°
2026-04-30 12:58 3.24519 102.74373 22643 ft 446 kts 78°
2026-04-30 12:58 3.25160 102.77415 22863 ft 448 kts 78°
2026-04-30 12:58 3.25802 102.80465 23033 ft 447 kts 78°
2026-04-30 12:58 3.26444 102.83518 23191 ft 449 kts 78°
2026-04-30 12:59 3.27092 102.86580 23377 ft 451 kts 78°
2026-04-30 12:59 3.27742 102.89651 23563 ft 452 kts 78°
2026-04-30 12:59 3.28395 102.92730 23756 ft 453 kts 78°
2026-04-30 12:59 3.29049 102.95819 23936 ft 454 kts 78°
2026-04-30 13:00 3.29706 102.98919 24118 ft 456 kts 78°
2026-04-30 13:00 3.30360 103.02021 24288 ft 457 kts 78°
2026-04-30 13:00 3.31015 103.05138 24454 ft 458 kts 78°
2026-04-30 13:00 3.31670 103.08257 24611 ft 459 kts 78°
2026-04-30 13:01 3.32317 103.11344 24774 ft 460 kts 78°
2026-04-30 13:01 3.32977 103.14482 24919 ft 461 kts 78°
2026-04-30 13:01 3.33642 103.17625 25059 ft 463 kts 78°
2026-04-30 13:01 3.34310 103.20779 25201 ft 464 kts 78°
2026-04-30 13:02 3.34980 103.23939 25339 ft 465 kts 78°
2026-04-30 13:02 3.35649 103.27105 25474 ft 466 kts 78°
2026-04-30 13:02 3.36314 103.30278 25605 ft 466 kts 78°
2026-04-30 13:02 3.36980 103.33460 25731 ft 467 kts 78°
2026-04-30 13:03 3.37644 103.36643 25856 ft 468 kts 78°
2026-04-30 13:03 3.38399 103.39817 25981 ft 469 kts 73°
2026-04-30 13:03 3.39613 103.42849 26105 ft 471 kts 64°
2026-04-30 13:03 3.41310 103.45654 26231 ft 472 kts 55°
2026-04-30 13:04 3.43223 103.48318 26357 ft 473 kts 55°
2026-04-30 13:04 3.45141 103.50998 26497 ft 473 kts 55°
2026-04-30 13:04 3.47051 103.53673 26647 ft 472 kts 56°
2026-04-30 13:04 3.48956 103.56348 26798 ft 472 kts 56°
2026-04-30 13:05 3.50859 103.59025 26942 ft 472 kts 56°
2026-04-30 13:05 3.52759 103.61702 27097 ft 472 kts 56°
2026-04-30 13:05 3.54659 103.64380 27271 ft 471 kts 56°
2026-04-30 13:06 3.58432 103.69690 27589 ft 471 kts 56°
2026-04-30 13:06 3.60331 103.72360 27753 ft 471 kts 56°
2026-04-30 13:06 3.62234 103.75022 27931 ft 470 kts 55°
2026-04-30 13:06 3.64153 103.77673 28088 ft 470 kts 55°
2026-04-30 13:07 3.66081 103.80316 28243 ft 470 kts 55°
2026-04-30 13:07 3.68016 103.82960 28392 ft 470 kts 55°
2026-04-30 13:07 3.69946 103.85600 28547 ft 470 kts 55°
2026-04-30 13:07 3.71875 103.88244 28715 ft 470 kts 55°
2026-04-30 13:08 3.73801 103.90891 28868 ft 470 kts 55°
2026-04-30 13:08 3.75720 103.93535 29029 ft 470 kts 55°
2026-04-30 13:08 3.77641 103.96183 29188 ft 470 kts 55°
2026-04-30 13:08 3.79559 103.98827 29348 ft 469 kts 55°
2026-04-30 13:09 3.81475 104.01471 29502 ft 470 kts 55°
2026-04-30 13:09 3.83392 104.04116 29650 ft 469 kts 55°
2026-04-30 13:09 3.85312 104.06761 29808 ft 469 kts 55°
2026-04-30 13:09 3.87232 104.09401 29971 ft 469 kts 55°
2026-04-30 13:10 3.89155 104.12043 30133 ft 469 kts 55°
2026-04-30 13:10 3.91080 104.14680 30300 ft 469 kts 55°
2026-04-30 13:10 3.93002 104.17307 30481 ft 468 kts 55°
2026-04-30 13:10 3.94901 104.19902 30650 ft 467 kts 55°
2026-04-30 13:11 3.96823 104.22525 30824 ft 467 kts 54°
2026-04-30 13:11 3.98741 104.25144 31003 ft 466 kts 54°
2026-04-30 13:11 4.00657 104.27760 31188 ft 465 kts 54°
2026-04-30 13:11 4.02568 104.30373 31378 ft 465 kts 54°
2026-04-30 13:12 4.04478 104.32988 31562 ft 464 kts 54°
2026-04-30 13:12 4.06377 104.35595 31750 ft 464 kts 54°
2026-04-30 13:12 4.08275 104.38201 31937 ft 463 kts 54°
2026-04-30 13:13 4.12069 104.43408 32294 ft 462 kts 54°
2026-04-30 13:13 4.13964 104.45998 32455 ft 461 kts 54°
2026-04-30 13:13 4.17748 104.51180 32837 ft 460 kts 54°
2026-04-30 13:14 4.19636 104.53767 33004 ft 460 kts 54°
2026-04-30 13:14 4.21523 104.56350 33185 ft 459 kts 54°
2026-04-30 13:14 4.25293 104.61504 33569 ft 458 kts 54°
2026-04-30 13:15 4.27169 104.64071 33752 ft 457 kts 54°
2026-04-30 13:15 4.30916 104.69209 34103 ft 456 kts 54°
2026-04-30 13:15 4.32786 104.71778 34276 ft 456 kts 54°
2026-04-30 13:16 4.34627 104.74309 34437 ft 456 kts 54°
2026-04-30 13:16 4.36495 104.76875 34607 ft 455 kts 54°
2026-04-30 13:16 4.38359 104.79432 34741 ft 455 kts 54°
2026-04-30 13:17 4.42112 104.84563 34899 ft 458 kts 54°
2026-04-30 13:17 4.44001 104.87140 34897 ft 459 kts 54°
2026-04-30 13:18 4.49675 104.94897 34897 ft 460 kts 54°
2026-04-30 13:18 4.55038 105.02224 34896 ft 460 kts 54°
2026-04-30 13:19 4.58824 105.07396 34894 ft 460 kts 54°
2026-04-30 13:19 4.62611 105.12583 34894 ft 461 kts 54°
2026-04-30 13:20 4.66396 105.17764 34897 ft 461 kts 54°
2026-04-30 13:20 4.70190 105.22952 34893 ft 462 kts 54°
2026-04-30 13:21 4.73982 105.28154 34899 ft 462 kts 54°
2026-04-30 13:22 4.79672 105.35891 34903 ft 462 kts 50°
2026-04-30 13:22 4.86287 105.41314 34898 ft 462 kts 33°
2026-04-30 13:23 4.94380 105.46588 34900 ft 462 kts 33°
2026-04-30 13:24 5.05141 105.53588 34901 ft 463 kts 33°
2026-04-30 13:25 5.15942 105.60617 34899 ft 463 kts 33°
2026-04-30 13:26 5.29456 105.69427 34904 ft 464 kts 33°
2026-04-30 13:28 5.42997 105.78250 34904 ft 464 kts 33°
2026-04-30 13:28 5.51117 105.83552 34904 ft 464 kts 33°
2026-04-30 13:29 5.61919 105.90598 34904 ft 465 kts 33°
2026-04-30 13:31 5.75481 105.99443 34904 ft 465 kts 33°
2026-04-30 13:32 5.89043 106.08313 34902 ft 465 kts 33°
2026-04-30 13:33 5.99901 106.15401 34905 ft 466 kts 33°
2026-04-30 13:34 6.08043 106.20733 34905 ft 466 kts 33°
2026-04-30 13:35 6.18903 106.27833 34904 ft 466 kts 33°
2026-04-30 13:36 6.29724 106.34900 34906 ft 465 kts 33°
2026-04-30 13:36 6.37846 106.40233 34900 ft 465 kts 33°
2026-04-30 13:37 6.45972 106.45555 34896 ft 464 kts 33°
2026-04-30 13:38 6.54103 106.50878 34897 ft 465 kts 33°
2026-04-30 13:39 6.64944 106.57987 34898 ft 465 kts 33°
2026-04-30 13:40 6.73072 106.63325 34898 ft 465 kts 33°
2026-04-30 13:40 6.78496 106.66880 34899 ft 466 kts 33°
2026-04-30 13:41 6.83920 106.70438 34901 ft 465 kts 33°
2026-04-30 13:41 6.89349 106.73998 34903 ft 466 kts 33°
2026-04-30 13:42 6.94772 106.77555 34911 ft 465 kts 33°
2026-04-30 13:42 7.02877 106.82881 34922 ft 466 kts 33°
2026-04-30 13:43 7.08303 106.86460 34927 ft 466 kts 33°
2026-04-30 13:43 7.13730 106.90029 34933 ft 466 kts 33°
2026-04-30 13:44 7.19160 106.93593 34933 ft 466 kts 33°
2026-04-30 13:44 7.24590 106.97163 34936 ft 466 kts 33°
2026-04-30 13:45 7.32736 107.02529 34935 ft 466 kts 33°
2026-04-30 13:46 7.38160 107.06109 34936 ft 466 kts 33°
2026-04-30 13:46 7.43585 107.09693 34930 ft 466 kts 33°
2026-04-30 13:47 7.49016 107.13281 34931 ft 467 kts 33°
2026-04-30 13:47 7.54418 107.16839 34928 ft 467 kts 33°
2026-04-30 13:48 7.59854 107.20418 34928 ft 467 kts 33°
2026-04-30 13:48 7.65287 107.23999 34926 ft 467 kts 33°
2026-04-30 13:49 7.70724 107.27588 34926 ft 467 kts 33°
2026-04-30 13:49 7.76154 107.31176 34925 ft 467 kts 33°
2026-04-30 13:50 7.81586 107.34764 34924 ft 467 kts 33°
2026-04-30 13:50 7.89753 107.40154 34922 ft 468 kts 33°
2026-04-30 13:51 7.95153 107.43734 34923 ft 468 kts 33°
2026-04-30 13:51 8.00591 107.47337 34925 ft 468 kts 33°
2026-04-30 13:52 8.06039 107.50938 34928 ft 468 kts 33°
2026-04-30 13:52 8.11492 107.54544 34930 ft 469 kts 33°
2026-04-30 13:53 8.16951 107.58144 34933 ft 469 kts 33°
2026-04-30 13:53 8.22402 107.61754 34934 ft 469 kts 33°
2026-04-30 13:54 8.27849 107.65366 34940 ft 469 kts 33°
2026-04-30 13:54 8.33299 107.68974 34937 ft 468 kts 33°
2026-04-30 13:55 8.38748 107.72591 34934 ft 469 kts 33°
2026-04-30 13:55 8.44198 107.76210 34938 ft 469 kts 33°
2026-04-30 13:56 8.49643 107.79819 34930 ft 468 kts 33°
2026-04-30 13:56 8.54958 107.83342 34927 ft 468 kts 33°
2026-04-30 13:57 8.60397 107.86957 34929 ft 468 kts 33°
2026-04-30 13:57 8.65806 107.90550 34933 ft 468 kts 33°
2026-04-30 13:58 8.73963 107.95961 34931 ft 467 kts 33°
2026-04-30 13:59 8.79397 107.99571 34925 ft 467 kts 33°
2026-04-30 13:59 8.84822 108.03186 34918 ft 467 kts 33°
2026-04-30 14:00 8.90253 108.06797 34916 ft 467 kts 33°
2026-04-30 14:00 8.98414 108.12224 34919 ft 468 kts 33°
2026-04-30 14:01 9.03854 108.15835 34922 ft 468 kts 33°
2026-04-30 14:01 9.09294 108.19456 34925 ft 468 kts 33°
2026-04-30 14:02 9.14734 108.23078 34929 ft 468 kts 33°
2026-04-30 14:02 9.20167 108.26708 34928 ft 468 kts 33°
2026-04-30 14:03 9.25599 108.30333 34929 ft 467 kts 33°
2026-04-30 14:03 9.30995 108.33932 34934 ft 467 kts 33°
2026-04-30 14:04 9.36413 108.37550 34934 ft 467 kts 33°
2026-04-30 14:04 9.41841 108.41174 34933 ft 467 kts 36°
2026-04-30 14:05 9.46416 108.45782 34931 ft 466 kts 55°
2026-04-30 14:05 9.49330 108.51618 34930 ft 466 kts 68°
2026-04-30 14:06 9.52989 108.60746 34923 ft 466 kts 68°
2026-04-30 14:07 9.56669 108.69867 34922 ft 467 kts 68°
2026-04-30 14:08 9.60344 108.79008 34920 ft 467 kts 68°
2026-04-30 14:08 9.64024 108.88174 34926 ft 468 kts 68°
2026-04-30 14:09 9.66456 108.94240 34933 ft 468 kts 68°
2026-04-30 14:10 9.70125 109.03436 34928 ft 470 kts 68°
2026-04-30 14:10 9.72579 109.09572 34930 ft 470 kts 68°
2026-04-30 14:11 9.75032 109.15713 34931 ft 470 kts 68°
2026-04-30 14:11 9.77490 109.21866 34933 ft 471 kts 68°
2026-04-30 14:12 9.79950 109.28021 34945 ft 471 kts 68°
2026-04-30 14:12 9.82411 109.34185 34953 ft 472 kts 68°
2026-04-30 14:13 9.84873 109.40364 34954 ft 473 kts 68°
2026-04-30 14:13 9.87339 109.46550 34956 ft 474 kts 68°
2026-04-30 14:14 9.89786 109.52700 34959 ft 474 kts 68°
2026-04-30 14:14 9.92259 109.58905 34966 ft 474 kts 68°
2026-04-30 14:15 9.94725 109.65111 34968 ft 475 kts 68°
2026-04-30 14:15 9.97199 109.71324 34970 ft 475 kts 68°
2026-04-30 14:16 9.99673 109.77537 34969 ft 475 kts 68°
2026-04-30 14:16 10.02144 109.83754 34967 ft 476 kts 68°
2026-04-30 14:17 10.04615 109.89986 34970 ft 476 kts 68°
2026-04-30 14:17 10.07088 109.96221 34971 ft 476 kts 68°
2026-04-30 14:18 10.09559 110.02465 34975 ft 477 kts 68°
2026-04-30 14:18 10.12847 110.10773 34978 ft 477 kts 68°
2026-04-30 14:19 10.16561 110.20131 34975 ft 476 kts 68°
2026-04-30 14:20 10.19030 110.26368 34974 ft 476 kts 68°
2026-04-30 14:20 10.22731 110.35733 34971 ft 476 kts 68°
2026-04-30 14:21 10.25199 110.41977 34973 ft 476 kts 68°
2026-04-30 14:22 10.28869 110.51347 34975 ft 476 kts 68°
2026-04-30 14:22 10.32550 110.60711 34974 ft 476 kts 68°
2026-04-30 14:23 10.37469 110.73206 34971 ft 476 kts 68°
2026-04-30 14:24 10.41137 110.82578 34977 ft 476 kts 68°
2026-04-30 14:25 10.46043 110.95061 34975 ft 476 kts 69°
2026-04-30 14:26 10.49709 111.04431 34976 ft 476 kts 69°
2026-04-30 14:27 10.53363 111.13804 34976 ft 476 kts 69°
2026-04-30 14:27 10.55802 111.20050 34977 ft 475 kts 69°
2026-04-30 14:28 10.59467 111.29411 34976 ft 475 kts 69°
2026-04-30 14:28 10.61904 111.35646 34978 ft 475 kts 69°
2026-04-30 14:29 10.66775 111.48125 34974 ft 474 kts 69°
2026-04-30 14:31 10.72826 111.63721 34973 ft 474 kts 69°
2026-04-30 14:31 10.76457 111.73069 34971 ft 474 kts 69°
2026-04-30 14:32 10.80079 111.82385 34968 ft 474 kts 69°
2026-04-30 14:33 10.82503 111.88627 34968 ft 474 kts 69°
2026-04-30 14:33 10.86133 111.97988 34968 ft 474 kts 69°
2026-04-30 14:34 10.88557 112.04230 34963 ft 474 kts 69°
2026-04-30 14:34 10.90971 112.10475 34962 ft 475 kts 69°
2026-04-30 14:35 10.95218 112.19543 34954 ft 475 kts 53°
2026-04-30 14:36 10.99929 112.24233 34950 ft 476 kts 36°
2026-04-30 14:36 11.05320 112.28152 34942 ft 477 kts 36°
2026-04-30 14:37 11.10711 112.32085 34943 ft 477 kts 36°
2026-04-30 14:37 11.16114 112.36046 34949 ft 478 kts 36°
2026-04-30 14:38 11.21511 112.40013 34948 ft 479 kts 36°
2026-04-30 14:38 11.26573 112.43728 34945 ft 479 kts 36°
2026-04-30 14:39 11.31991 112.47695 34948 ft 480 kts 36°
2026-04-30 14:39 11.37404 112.51662 34949 ft 480 kts 36°
2026-04-30 14:40 11.45532 112.57632 34949 ft 480 kts 36°
2026-04-30 14:40 11.50958 112.61619 34951 ft 481 kts 36°
2026-04-30 14:41 11.56381 112.65607 34953 ft 481 kts 36°
2026-04-30 14:41 11.61810 112.69615 34959 ft 482 kts 36°
2026-04-30 14:42 11.67242 112.73617 34972 ft 481 kts 36°
2026-04-30 14:42 11.72670 112.77613 34977 ft 481 kts 36°
2026-04-30 14:43 11.78096 112.81621 34974 ft 481 kts 36°
2026-04-30 14:43 11.83510 112.85628 34977 ft 481 kts 36°
2026-04-30 14:44 11.88891 112.89613 35009 ft 481 kts 36°
2026-04-30 14:44 11.91605 112.91617 35190 ft 481 kts 36°
2026-04-30 14:44 11.94315 112.93616 35361 ft 480 kts 36°
2026-04-30 14:45 11.97019 112.95611 35533 ft 479 kts 36°
2026-04-30 14:45 11.99717 112.97602 35698 ft 478 kts 36°
2026-04-30 14:45 12.02415 112.99594 35847 ft 478 kts 36°
2026-04-30 14:45 12.05104 113.01586 35968 ft 478 kts 36°
2026-04-30 14:46 12.10491 113.05582 35994 ft 479 kts 36°
2026-04-30 14:46 12.15889 113.09582 35993 ft 479 kts 36°
2026-04-30 14:47 12.21280 113.13579 35989 ft 479 kts 36°
2026-04-30 14:47 12.26678 113.17578 35992 ft 479 kts 36°
2026-04-30 14:48 12.32037 113.21551 35990 ft 479 kts 36°
2026-04-30 14:48 12.37433 113.25559 35998 ft 479 kts 36°
2026-04-30 14:49 12.42833 113.29568 35997 ft 480 kts 36°
2026-04-30 14:49 12.48240 113.33574 36000 ft 480 kts 36°
2026-04-30 14:50 12.56340 113.39573 36000 ft 479 kts 36°
2026-04-30 14:51 12.64442 113.45590 35997 ft 480 kts 36°
2026-04-30 14:52 12.72418 113.51527 36002 ft 480 kts 36°
2026-04-30 14:52 12.80537 113.57548 35999 ft 480 kts 36°
2026-04-30 14:53 12.88646 113.63592 35994 ft 481 kts 36°
2026-04-30 14:54 12.99472 113.71658 35992 ft 481 kts 36°
2026-04-30 14:55 13.07589 113.77728 35985 ft 482 kts 36°
2026-04-30 14:56 13.18453 113.85817 35982 ft 483 kts 36°
2026-04-30 14:57 13.26604 113.91914 35982 ft 484 kts 36°
2026-04-30 14:58 13.37488 114.00062 35980 ft 485 kts 36°
2026-04-30 14:58 13.45675 114.06180 35980 ft 486 kts 36°
2026-04-30 15:00 13.59326 114.16420 35979 ft 486 kts 36°
2026-04-30 15:01 13.70232 114.24603 35985 ft 487 kts 35°
2026-04-30 15:01 13.78442 114.30771 35990 ft 487 kts 36°
2026-04-30 15:02 13.83911 114.34881 35989 ft 487 kts 36°
2026-04-30 15:03 13.97505 114.45277 35986 ft 487 kts 43°
2026-04-30 15:04 14.09202 114.57908 35982 ft 488 kts 46°
2026-04-30 15:06 14.20870 114.70632 35992 ft 489 kts 46°
2026-04-30 15:07 14.30176 114.80785 35994 ft 489 kts 46°
2026-04-30 15:08 14.39494 114.90979 35990 ft 488 kts 46°
2026-04-30 15:09 14.50353 115.02880 35994 ft 488 kts 47°
2026-04-30 15:10 14.59662 115.13089 35992 ft 488 kts 46°
2026-04-30 15:11 14.73621 115.28412 35996 ft 488 kts 47°
2026-04-30 15:13 14.85267 115.41233 35992 ft 490 kts 47°
2026-04-30 15:14 15.01568 115.59206 36002 ft 490 kts 47°
2026-04-30 15:17 15.22525 115.82388 35998 ft 492 kts 47°
2026-04-30 15:19 15.41241 116.03142 35988 ft 494 kts 47°